Location: Gouy
(50.0008°N, 3.2556°E)
Time: 09:22:06
(UTC+00:00)

Cosmos 1703 Rocket - Visible Passes

Search period start: 07 October 2024 00:00
Search period end: 17 October 2024 00:00
Orbit: 601 x 628 km, 82.5° (Epoch: 06 October)

Date Brightness Start Highest point End Pass type
(mag) Time Alt. Az. Time Alt. Az. Time Alt. Az.
07 Oct 3.4 18:30:48 10° N 18:35:12 85° E 18:39:32 10° S visible
07 Oct 6.7 20:10:48 10° WNW 20:12:16 11° W 20:13:43 10° W visible
08 Oct 4.2 18:46:54 10° NNW 18:51:11 56° W 18:55:24 10° S visible
09 Oct 5.3 19:03:09 10° NNW 19:07:04 33° W 19:10:56 10° SSW visible
10 Oct 3.8 17:41:12 10° N 17:45:25 46° ENE 17:49:35 10° SSE visible
10 Oct 6.2 19:19:40 10° NW 19:22:52 20° W 19:26:02 10° SW visible
11 Oct 3.4 17:57:06 10° N 18:01:28 79° E 18:05:47 10° SSE visible
11 Oct 6.8 19:36:49 10° WNW 19:38:34 12° W 19:40:20 10° WSW visible
12 Oct 4.1 18:13:08 10° NNW 18:17:26 60° W 18:21:41 10° S visible
13 Oct 5.3 18:29:22 10° NNW 18:33:20 35° W 18:37:15 10° SSW visible
14 Oct 6.9 05:29:04 10° ESE 05:31:13 13° E 05:33:22 10° NE visible
14 Oct 6.2 18:45:48 10° NW 18:49:07 21° W 18:52:24 10° SW visible
15 Oct 3.5 17:23:19 10° N 17:27:41 74° E 17:31:59 10° SSE visible
15 Oct 6.9 19:02:48 10° NW 19:04:49 13° W 19:06:50 10° WSW visible
16 Oct 4.0 17:39:20 10° NNW 17:43:38 65° W 17:47:54 10° S visible
